Вернуться в каталог

CZ-2C DEB

АктивенSSO
NORAD 40263·DEBRIS·🇨🇳 China

Запущен Sep 28, 2014 с Jiuquan Satellite Launch Center

Loading…

Ближайшие Пролёты (ближайшие 24 часа)

TLE

СвежийSource: Space-Track

Эпоха: Sep 14, 2026, 13:44 UTC

1 40263U 14059C   26257.57248296  .00007863  00000-0  72459-3 0  9993
2 40263  98.2021  14.6811 0051554 349.8537  10.1636 14.93975616636417

Отслеживайте CZ-2C DEB в реальном времени с AllMySat

Download on the App Store